This demonstration page uses our WeatherBlox Daily Observations layout. Learn more.

Hourly Observations for January 23, 2020

Temp ( °F °C ) Dew Point ( °F °C ) Humidity (%) Winds ( mph kmh ) Pressure ( in mb ) Visibility ( mi km ) Precip ( " mm )
12:53 am 00:53 Clear 28 -2.2 20 -6.7 72 72 Calm 30.27 1025 10 16.0934 0 0
1:53 am 01:53 Clear 28 -2.2 23 -5 81 81 E 3 6 30.25 1025 10 16.0934 0 0
2:53 am 02:53 Clear 30 -1.1 21 -6.1 69 69 E 6 9 30.24 1024 10 16.0934 0 0
3:53 am 03:53 Clear 30 -1.1 22 -5.6 72 72 Calm 30.24 1024 10 16.0934 0 0
4:53 am 04:53 Clear 30 -1.1 20 -6.7 66 66 Calm 30.23 1024 10 16.0934 0 0
5:53 am 05:53 Clear 30 -1.1 21 -6.1 69 69 E 3 6 30.24 1024 10 16.0934 0 0
6:53 am 06:53 Clear 30 -1.1 21 -6.1 69 69 Calm 30.24 1024 10 16.0934 0 0
7:53 am 07:53 Sunny 31 -0.6 22 -5.6 69 69 ESE 5 7 30.24 1024 10 16.0934 0 0
8:53 am 08:53 Sunny 32 0 23 -5 69 69 E 3 6 30.24 1024 10 16.0934 0 0
9:53 am 09:53 Partly Cloudy 36 2.2 21 -6.1 55 55 Calm 30.24 1024 10 16.0934 0 0
10:53 am 10:53 Mostly Cloudy 39 3.9 20 -6.7 46 46 VRB 3 6 30.24 1024 10 16.0934 0 0
11:53 am 11:53 Cloudy 41 5 20 -6.7 43 43 VRB 6 9 30.23 1024 10 16.0934 0 0
12:53 pm 12:53 Cloudy 45 7.2 19 -7.2 35 35 VRB 3 6 30.19 1022 10 16.0934 0 0
4:53 pm 16:53 Cloudy 46 7.8 21 -6.1 37 37 ESE 5 7 30.13 1020 10 16.0934 0 0
5:53 pm 17:53 Cloudy 43 6.1 23 -5 45 45 E 5 7 30.12 1020 10 16.0934 0 0
6:53 pm 18:53 Cloudy 42 5.6 27 -2.8 55 55 E 3 6 30.12 1020 10 16.0934 0.001 0.001
7:53 pm 19:53 Cloudy with Light Rain 39 3.9 31 -0.6 73 73 Calm 30.11 1020 10 16.0934 0.001 0.001
8:53 pm 20:53 Cloudy with Light Rain 37 2.8 34 1.1 89 89 Calm 30.11 1020 10 16.0934 0.01 0.254
9:53 pm 21:53 Cloudy with Light Rain 38 3.3 33 0.6 83 83 NE 5 7 30.08 1019 9 14.48406 0.03 0.762
10:53 pm 22:53 Cloudy with Light Rain 37 2.8 35 1.7 93 93 Calm 30.06 1018 7 11.26538 0.01 0.254
11:53 pm 23:53 Cloudy 38 3.3 33 0.6 83 83 ESE 5 7 30.04 1017 10 16.0934 0.01 0.254

Powered by AerisWeather